#timestamp,LO_Frequency,Hit,StdDev 
1593658815.2,286046996.1,N
1593658835.0,286046996.2,N
1593658835.9,286046996.2,N
1593658855.8,286046996.3,N
1593658875.6,286046994.0,N
1593658895.5,286046995.5,N
1593658915.3,286046997.1,N
1593658935.1,286046998.6,N
1593658955.9,286046996.7,N
1593658975.7,286046998.6,N
1593658995.5,286047002.8,N
1593659015.4,286046999.2,N
1593659035.2,286046990.6,N
1593659055.1,286046988.9,N
1593659056.0,286046988.9,N
1593659075.8,286046989.1,N
1593659095.6,286046991.0,N
1593659115.5,286046994.1,N
1593659135.3,286046998.4,N
1593659155.1,286047002.4,N
1593659175.9,286047002.8,N
1593659195.7,286047001.5,N
1593659215.6,286046999.7,N
1593659235.4,286047002.1,N
1593659255.2,286047001.6,N
1593659275.1,286047005.9,N
1593659276.0,286047005.9,N
1593659295.8,286047006.1,N
1593659315.6,286047009.7,N
1593659335.5,286047012.5,N
1593659355.3,286047012.8,N
1593659375.2,286047014.0,N
1593659395.9,286047013.5,N
1593659415.7,286047011.9,N
1593659435.6,286047012.8,N
1593659455.4,286047013.5,N
1593659475.2,286047015.6,N
1593659495.1,286047017.2,N
1593659496.0,286047017.2,N
1593659515.8,286047015.8,N
1593659535.7,286047018.9,N
1593659555.5,286047021.8,N
1593659575.3,286047020.5,N
1593659595.2,286047023.6,N
1593659615.0,286047022.7,N
1593659615.9,286047022.7,N
1593659635.8,286047019.2,N
1593659655.6,286047017.5,N
1593659675.4,286047018.6,N
1593659695.3,286047017.4,N
1593659715.1,286047019.1,N
1593659735.8,286047019.9,N
1593659755.7,286047019.2,N
1593659775.5,286047017.6,N
1593659795.4,286047018.1,Y
1593659815.2,286047009.2,P
1593659835.0,286047012.1,P
1593659866.0,286047004.8,E
1593659875.9,286047002.7,N
1593659895.7,286046997.0,P
1593659915.6,286046993.7,N
1593659935.4,286046996.6,N
1593659955.2,286047001.1,N
1593659975.1,286046996.5,N
1593659976.0,286046996.5,N
1593659995.8,286046997.3,N
1593660015.7,286046995.6,N
1593660035.5,286046995.5,N
1593660055.3,286046995.6,N
1593660075.2,286047002.2,N
1593660095.0,286047005.6,N
1593660095.9,286047005.6,N
1593660115.7,286047004.7,N
1593660135.6,286047006.6,N
1593660155.4,286047007.3,N
1593660175.3,286047003.8,N
1593660195.1,286047012.1,N
1593660215.9,286047017.7,Y
1593660235.7,286047019.8,P
1593660255.5,286047017.7,N
1593660275.4,286047023.2,N
1593660295.2,286047020.2,N
1593660315.0,286047021.0,N
1593660315.9,286047021.0,N
1593660335.8,286047016.0,N
1593660355.6,286047014.3,N
1593660375.5,286047020.1,Y
1593660395.3,286047004.6,P
1593660415.1,286047003.0,N
1593660435.9,286047003.4,N
1593660455.7,286047002.7,N
1593660475.6,286047005.1,N
1593660495.4,286047001.4,N
1593660515.2,286046998.4,N
1593660535.1,286047001.2,N
1593660536.0,286047001.2,N
1593660555.8,286046999.4,N
1593660575.6,286047011.9,N
1593660595.5,286047001.6,N
1593660615.3,286046998.6,N
1593660635.2,286047000.5,N
1593660655.9,286046998.4,N
1593660675.7,286046998.5,N
1593660695.6,286046995.0,N
1593660715.4,286046995.1,N
1593660735.2,286046996.3,N
1593660755.1,286046999.1,N
1593660756.0,286046999.1,N
1593660775.8,286047002.6,N
1593660795.7,286046998.3,N
1593660815.5,286046998.3,N
1593660835.3,286046999.0,N
1593660855.2,286046997.3,N
1593660875.9,286046996.6,N
1593660895.7,286046995.7,N
1593660915.6,286046992.0,N
1593660935.4,286046992.3,N
1593660955.3,286046987.0,Y
1593660975.1,286046988.5,P
1593660976.0,286046988.5,N
1593660995.8,286046986.4,N
1593661015.7,286046983.0,Y
1593661035.5,286046994.4,P
1593661055.3,286046990.6,P
1593661075.2,286046991.2,P
1593661095.0,286046992.8,Y
1593661095.9,286046992.8,P
1593661115.8,286047000.8,N
1593661135.6,286046995.5,N
1593661155.4,286046991.6,N
1593661175.3,286046992.8,N
1593661195.1,286046988.9,Y
1593661215.8,286046992.1,P
1593661235.7,286046992.9,P
1593661255.5,286046996.4,P
1593661275.4,286046994.4,Y
1593661295.2,286047002.8,P
1593661315.0,286047002.3,N
1593661315.9,286047002.3,N
1593661335.8,286046999.8,N
1593661355.6,286046996.8,N
1593661375.5,286046998.7,N
1593661395.3,286046999.4,N
1593661415.1,286046999.1,N
1593661435.9,286046999.0,N
1593661455.7,286047000.7,N
1593661475.5,286047002.1,N
1593661495.4,286047001.9,N
1593661515.2,286047003.8,N
1593661535.1,286047003.5,N
1593661536.0,286047003.5,N
1593661555.8,286047005.7,N
1593661575.6,286047006.7,N
1593661595.5,286047006.5,N
1593661615.3,286047008.1,N
1593661635.1,286047009.2,N
1593661655.9,286047008.6,N
1593661675.7,286047006.2,N
1593661695.6,286047006.5,N
1593661715.4,286047006.8,N
1593661735.2,286047006.7,N
1593661755.1,286047007.7,N
1593661756.0,286047007.7,N
1593661775.8,286047009.5,N
1593661795.7,286047012.9,Y
1593661815.5,286047005.8,P
1593661835.3,286047001.8,N
1593661855.2,286047001.3,N
1593661875.0,286047002.6,N
1593661875.9,286047002.6,N
1593661895.7,286047000.0,N
1593661915.6,286047002.0,N
1593661935.4,286046999.7,N
1593661955.3,286046997.5,N
1593661975.1,286046997.8,N
1593661976.0,286046997.8,N
1593661995.8,286046997.4,N
1593662015.7,286046993.9,N
1593662035.5,286046994.8,N
1593662055.4,286046995.9,N
1593662075.2,286046997.2,N
1593662095.0,286046998.1,N
1593662095.9,286046998.1,N
1593662115.8,286046999.7,N
1593662135.2,286046998.2,N
1593662155.9,286046999.0,N
1593662175.7,286047001.4,N
1593662195.6,286047004.7,N
1593662215.4,286047006.7,N
1593662235.2,286047006.7,N
1593662255.1,286047004.5,N
1593662256.0,286047004.5,N
1593662275.8,286047002.6,N
1593662295.7,286047001.8,N
1593662315.5,286047001.7,N
1593662335.3,286047003.7,N
1593662355.2,286047003.9,N
1593662375.0,286047002.0,N
1593662375.9,286047002.0,N
1593662395.7,286047000.8,N
